Weather in Piskovichi

Russia / Pskov Oblast     57°51′42″N   28°12′48″E
temp.,
°C
wind,
m/s
gust,
m/s
humid.,
%
clouds,
%
prec.,
mm/h
press.,
hPa
HPBL,
m
25 february, thu
thu2500:00+3sw41399100 0.0 1018444
03:00+3wsw51498100 0.0 1018465
06:00+4wsw412100100 0.0 1016346
09:00+4wsw413100100 0.0 1017386
12:00+4w410100100 0.0 1016347
15:00+5w514100100 0.1 1016493
18:00+5wsw51595100 0.1 1015485
21:00+6wsw51494100 0.1 1014414
26 february, fri
fri2600:00+5wsw41392100 0.0 1012417
03:00+5sw51394100 0.0 1010430
06:00+5wsw51594100 0.7 1007695
09:00+3w6158680 0.7 1006865
12:00+3w6138394 0.0 1007999
15:00+4w6128497 0.0 1008998
18:00+3w31190100 0.0 1006583
21:00+2w31093100 0.0 1007432
27 february, sat
sat2700:00+2w399295 0.0 1006408
03:00+1nw599396 0.0 1008532
06:00+1nw51096100 0.1 1009521
09:00+1nnw51097100 0.2 1012567
12:00+1nnw61091100 0.1 1014587
15:00+1nnw6985100 0.1 1017760
18:00+1nnw5109198 0.0 1019631
21:000nnw598799 0.1 1022695
28 february, sun
sun2800:000nnw5882100 0.1 1023716
03:00−2nnw488696 0.1 1024598
06:00−2nnw369096 0.0 1024395
09:00−2nw358898 0.0 1025361
12:000wnw2579100 0.0 1025468
15:00+1wsw2496100 0.2 1025229
18:00+1wnw2499100 0.1 1025142
21:00+1wnw2497100 0.1 1026123
1 march, mon
mon100:000wnw369657 0.0 1027148
03:00−1w379633 0.0 1028164
06:000wsw389541 0.0 1028244
09:00+1w3109652 0.0 1027390
12:00+5w41079100 0.0 1027518
15:00+6w41271100 0.0 1025963
18:00+4w4157791 0.0 1022642
21:00+2wnw5148696 0.0 1022480